Miscellaneous Local Product
Issued by NWS Hastings, NE

Home | Current Version | Previous Version | Text Only | Print | Product List | Glossary Off
Versions: 1 2 3 4 5 6 7 8 9 10 11 12 13 14 15 16 17 18 19 20 21 22 23 24 25 26 27 28 29 30 31 32 33 34 35 36 37 38 39 40 41 42 43 44 45 46 47 48 49 50

000
AXUS43 KGID 262102
MISGRI

GID CWA HOURLY WEATHER ROUNDUP
NATIONAL WEATHER SERVICE HASTINGS NE
300 PM CST THU FEB 26 2015

NOTE: "FAIR" INDICATES FEW OR NO CLOUDS BELOW 12,000 FEET WITH NO
SIGNIFICANT WEATHER AND/OR OBSTRUCTIONS TO VISIBILITY.

...SOUTH CENTRAL NEBRASKA...

CITY           SKY/WX    TMP DP  RH WIND       PRES   REMARKS
GRAND ISLAND   SUNNY     16  -5  39 N14G21    30.46S WCI   2
HASTINGS       SUNNY     17  -7  34 N15       30.43F WCI   2
KEARNEY        SUNNY     18  -8  32 N13G28    30.43S WCI   4
ORD            SUNNY     16  -7  35 N14G24    30.44S WCI   2
YORK           PTSUNNY   14   0  52 N8G21     30.47S WCI   3
AURORA         SUNNY     16  -5  39 N10G23    30.46S WCI   4
LEXINGTON      SUNNY     20  -7  30 N14       30.41S WCI   6
HOLDREGE       SUNNY     19  -8  29 N9G17     30.40F WCI   9
HEBRON         SUNNY     18  -6  35 N9G24     30.47F WCI   7

...NEBRASKA PANHANDLE...

CITY           SKY/WX    TMP DP  RH WIND       PRES   REMARKS
CHADRON        PTSUNNY   13   2  61 E8        30.37F WCI   2
ALLIANCE       PTSUNNY   13   1  59 VRB7      30.29F WCI   3
SCOTTSBLUFF    CLOUDY    17   3  54 VRB3      30.28F
SIDNEY         FLURRIES  16   6  65 N9        30.24F WCI   4

...WESTERN AND NORTH CENTRAL NEBRASKA...

CITY           SKY/WX    TMP DP  RH WIND       PRES   REMARKS
VALENTINE      MOSUNNY   12  -2  53 N14       30.43F WCI  -3
AINSWORTH      SUNNY     11  -4  51 N17G23    30.43S WCI  -7
ONEILL         CLOUDY    12   1  60 N14       30.46F WCI  -3
BROKEN BOW     SUNNY     17  -5  37 N13G25    30.39F WCI   4
IMPERIAL       PTSUNNY   22   1  40 NE10G17   30.31F WCI  11
NORTH PLATTE   SUNNY     20  -4  34 N14G20    30.36F WCI   7
MCCOOK         SUNNY     25  -2  31 N9G20     30.38F WCI  15

...EASTERN NEBRASKA...

CITY           SKY/WX    TMP DP  RH WIND       PRES   REMARKS
NORFOLK        CLOUDY    11   1  64 N18G25    30.47F WCI  -7
SO SIOUX CITY  CLOUDY    11   1  64 NW15      30.51F WCI  -5
TEKAMAH        CLOUDY    11   0  61 N14       30.52F WCI  -5
COLUMBUS       CLOUDY    12  -6  44 N16       30.50F WCI  -4
ALBION         PTSUNNY   13   0  55 N14G21    30.47F WCI  -2
OMAHA EPPLEY   FLURRIES  11   2  67 N20       30.51S WCI  -7
OFFUTT AFB     MOSUNNY   10   0  61 NW14G20   30.50S WCI  -5
MILLARD        PTSUNNY   11  -1  56 NW12G21   30.51S WCI  -3
LINCOLN        CLOUDY    15   0  51 N17G24    30.52R WCI  -1
NEBRASKA CITY  PTSUNNY   13  -3  48 N13G23    30.48S WCI  -1
BEATRICE       MOSUNNY   16   1  51 N15G24    30.48S WCI   1
FALLS CITY     SUNNY     17  -3  41 N15G25    30.48S WCI   2

...NORTHERN KANSAS...

CITY           SKY/WX    TMP DP  RH WIND       PRES   REMARKS
GOODLAND       CLOUDY    19   6  57 NE10      30.29F WCI   7
HILL CITY      SUNNY     24  -3  30 N17G24    30.40F WCI  11
NORTON         CLEAR     23  -9  23 N14G23    30.38F WCI  11
PHILLIPSBURG   SUNNY     25  -4  28 N7        30.44F WCI  17
HAYS           SUNNY     23  -6  28 NE13G18   30.41F WCI  11
RUSSELL        SUNNY     22  -4  32 N14       30.41F WCI   9
CONCORDIA      SUNNY     20  -4  34 N14G23    30.46F WCI   7
SALINA         SUNNY     23  -4  30 N17G26    30.47F WCI   9
TOPEKA         SUNNY     22   0  38 N15G22    30.47R WCI   9



USA.gov is the U.S. government's official web portal to all federal, state and local government web resources and services.